Weather History for Atlantic, IA

Change the Weather History Date:

Friday, November 8, 2013

  Actual Average Record
Temperature  
Mean Temperature 43 °F -  
Max Temperature 62 °F 49 °F 80 °F (1999)
Min Temperature 24 °F 29 °F 23 °F (2000)
Degree Days  
Heating Degree Days 22    
Moisture  
Dew Point 30 °F    
Average Humidity 58    
Maximum Humidity 93    
Minimum Humidity 32    
Precipitation  
Precipitation 0.00 in - - ()
Sea Level Pressure  
Sea Level Pressure 29.96 in    
Wind  
Wind Speed 9 mph (SSW)    
Max Wind Speed 34 mph    
Max Gust Speed 45 mph    
Visibility 10 miles    
Events      
Averages and records for this station are not official NWS values.
T = Trace of Precipitation, MM = Missing Value Source: NWS Daily Summary

Daily Weather History Graph

Daily Weather History Graph

Search for Another Location

Airport:

Trip Planner

Search our weather history database for the weather conditions in past years. The results will help you decide how hot, cold, wet, or windy it might be!

Date:

Astronomy

Nov. 08, 2013 Rise Set
Actual Time 7:00 AM CST 5:06 PM CST
Civil Twilight 6:31 AM CST 5:36 PM CST
Nautical Twilight 5:58 AM CST 6:09 PM CST
Astronomical Twilight 5:25 AM CST 6:41 PM CST
Moon 11:56 AM CST (11/8) 10:29 PM CST (11/8)
Length of Visible Light 11h 04m
Length of Day
10h 06m
Waxing Crescent, 33% of the Moon is Illuminated
Nov 8
Waxing Crescent
Nov 9
First Quarter
Nov 17
Full
Nov 25
Last Quarter
Dec 2
New

Hourly Weather History & Observations

Time (CST) Temp. Windchill Dew Point Humidity Pressure Visibility Wind Dir Wind Speed Gust Speed Precip Events Conditions
12:15 AM 26.6 °F - 23.0 °F 86% 30.28 in 10.0 mi Calm Calm - N/A   Clear
12:35 AM 24.8 °F - 21.2 °F 86% 30.27 in 10.0 mi Calm Calm - N/A   Clear
12:55 AM 24.8 °F - 23.0 °F 93% 30.27 in 10.0 mi Calm Calm - N/A   Clear
1:15 AM 24.8 °F - 23.0 °F 93% 30.26 in 10.0 mi Calm Calm - N/A   Clear
1:35 AM 26.6 °F 21.2 °F 23.0 °F 86% 30.26 in 10.0 mi SW 4.6 mph - N/A   Clear
1:55 AM 26.6 °F - 23.0 °F 86% 30.25 in 10.0 mi Calm Calm - N/A   Clear
2:15 AM 28.4 °F - 23.0 °F 80% 30.24 in 10.0 mi Calm Calm - N/A   Clear
2:35 AM 26.6 °F - 23.0 °F 86% 30.24 in 10.0 mi Calm Calm - N/A   Clear
2:55 AM 26.6 °F - 23.0 °F 86% 30.23 in 10.0 mi Calm Calm - N/A   Clear
3:15 AM 26.6 °F - 23.0 °F 86% 30.22 in 10.0 mi Calm Calm - N/A   Clear
3:35 AM 28.4 °F 24.6 °F 24.8 °F 86% 30.21 in 10.0 mi SSW 3.5 mph - N/A   Clear
3:55 AM 30.2 °F 26.7 °F 24.8 °F 80% 30.20 in 10.0 mi SW 3.5 mph - N/A   Clear
4:15 AM 30.2 °F 25.4 °F 24.8 °F 80% 30.19 in 10.0 mi South 4.6 mph - N/A   Clear
4:35 AM 32.0 °F 24.8 °F 24.8 °F 75% 30.19 in 10.0 mi SSW 8.1 mph - N/A   Clear
4:55 AM 33.8 °F 27.0 °F 24.8 °F 70% 30.19 in 10.0 mi South 8.1 mph - N/A   Clear
5:15 AM 33.8 °F 27.7 °F 24.8 °F 70% 30.17 in 10.0 mi South 6.9 mph - N/A   Clear
5:35 AM 33.8 °F 27.0 °F 24.8 °F 70% 30.15 in 10.0 mi South 8.1 mph - N/A   Scattered Clouds
5:55 AM 35.6 °F 29.2 °F 24.8 °F 65% 30.15 in 10.0 mi South 8.1 mph - N/A   Scattered Clouds
6:15 AM 35.6 °F 28.6 °F 26.6 °F 70% 30.14 in 10.0 mi South 9.2 mph - N/A   Scattered Clouds
6:35 AM 35.6 °F 29.2 °F 26.6 °F 70% 30.13 in 10.0 mi South 8.1 mph - N/A   Partly Cloudy
6:55 AM 35.6 °F 30.7 °F 26.6 °F 70% 30.12 in 10.0 mi South 5.8 mph - N/A   Clear
7:15 AM 37.4 °F 32.1 °F 26.6 °F 65% 30.11 in 10.0 mi South 6.9 mph - N/A   Clear
7:35 AM 37.4 °F 32.1 °F 26.6 °F 65% 30.10 in 10.0 mi South 6.9 mph 13.8 mph N/A   Clear
7:55 AM 39.2 °F 33.0 °F 26.6 °F 61% 30.10 in 10.0 mi South 9.2 mph - N/A   Clear
8:15 AM 39.2 °F 33.0 °F 26.6 °F 61% 30.08 in 10.0 mi South 9.2 mph 16.1 mph N/A   Clear
8:35 AM 41.0 °F 33.9 °F 26.6 °F 57% 30.06 in 10.0 mi SSE 12.7 mph 19.6 mph N/A   Clear
8:55 AM 41.0 °F 32.8 °F 26.6 °F 57% 30.05 in 10.0 mi SSE 16.1 mph - N/A   Clear
9:15 AM 42.8 °F 35.8 °F 28.4 °F 57% 30.03 in 10.0 mi South 13.8 mph 20.7 mph N/A   Clear
9:35 AM 44.6 °F 37.4 °F 28.4 °F 53% 30.00 in 10.0 mi South 16.1 mph 27.6 mph N/A   Clear
9:55 AM 46.4 °F 39.2 °F 30.2 °F 53% 29.98 in - South 18.4 mph 25.3 mph N/A   Clear
10:15 AM 48.2 °F - 30.2 °F 50% 29.97 in 10.0 mi South 23.0 mph 33.4 mph N/A   Clear
10:35 AM 50.0 °F - 32.0 °F 50% 29.95 in 10.0 mi South 20.7 mph 34.5 mph N/A   Clear
10:55 AM 51.8 °F - 32.0 °F 47% 29.92 in 10.0 mi South 21.9 mph 29.9 mph N/A   Clear
11:15 AM 53.6 °F - 32.0 °F 44% 29.90 in 10.0 mi South 21.9 mph 35.7 mph N/A   Clear
11:35 AM 55.4 °F - 32.0 °F 41% 29.88 in 10.0 mi South 18.4 mph 32.2 mph N/A   Clear
11:55 AM 55.4 °F - 30.2 °F 38% 29.85 in 10.0 mi South 24.2 mph 35.7 mph N/A   Clear
12:15 PM 57.2 °F - 32.0 °F 38% 29.82 in 10.0 mi South 23.0 mph 35.7 mph N/A   Clear
12:35 PM 59.0 °F - 32.0 °F 36% 29.80 in 10.0 mi South 24.2 mph 35.7 mph N/A   Clear
12:55 PM 60.8 °F - 32.0 °F 34% 29.80 in 10.0 mi South 27.6 mph 39.1 mph N/A   Clear
1:15 PM 60.8 °F - 32.0 °F 34% 29.78 in 10.0 mi South 29.9 mph 41.4 mph N/A   Clear
1:35 PM 62.6 °F - 32.0 °F 32% 29.77 in 10.0 mi SSW 34.5 mph 43.7 mph N/A   Clear
1:55 PM 60.8 °F - 32.0 °F 34% 29.76 in 10.0 mi SSW 33.4 mph 44.9 mph N/A   Clear
2:15 PM 60.8 °F - 32.0 °F 34% 29.75 in 10.0 mi SSW 29.9 mph 39.1 mph N/A   Clear
2:35 PM 62.6 °F - 33.8 °F 34% 29.75 in 10.0 mi SSW 24.2 mph 40.3 mph N/A   Clear
2:55 PM 62.6 °F - 33.8 °F 34% 29.75 in 10.0 mi SSW 21.9 mph 36.8 mph N/A   Clear
3:15 PM 62.6 °F - 33.8 °F 34% 29.74 in 10.0 mi SSW 25.3 mph 33.4 mph N/A   Clear
3:35 PM 62.6 °F - 33.8 °F 34% 29.74 in 10.0 mi SSW 19.6 mph 26.5 mph N/A   Clear
3:55 PM 60.8 °F - 33.8 °F 36% 29.74 in 10.0 mi SSW 17.3 mph 25.3 mph N/A   Clear
4:15 PM 60.8 °F - 33.8 °F 36% 29.75 in 10.0 mi SW 16.1 mph - N/A   Clear
4:35 PM 60.8 °F - 32.0 °F 34% 29.76 in 10.0 mi SW 19.6 mph 27.6 mph N/A   Clear
4:55 PM 59.0 °F - 33.8 °F 39% 29.76 in 10.0 mi SW 16.1 mph - N/A   Clear
5:15 PM 57.2 °F - 33.8 °F 41% 29.76 in 10.0 mi SW 12.7 mph - N/A   Clear
5:35 PM 57.2 °F - 35.6 °F 44% 29.75 in 10.0 mi SSW 11.5 mph - N/A   Clear
5:55 PM 57.2 °F - 35.6 °F 44% 29.76 in 10.0 mi SSW 11.5 mph - N/A   Clear
6:15 PM 57.2 °F - 35.6 °F 44% 29.77 in 10.0 mi SW 11.5 mph - N/A   Clear
6:35 PM 57.2 °F - 35.6 °F 44% 29.78 in 10.0 mi SW 12.7 mph - N/A   Clear
6:55 PM 57.2 °F - 35.6 °F 44% 29.79 in 10.0 mi SW 13.8 mph - N/A   Partly Cloudy
7:15 PM 55.4 °F - 37.4 °F 51% 29.80 in 10.0 mi SW 11.5 mph - N/A   Scattered Clouds
7:35 PM 55.4 °F - 37.4 °F 51% 29.80 in 10.0 mi SW 10.4 mph - N/A   Partly Cloudy
7:55 PM 53.6 °F - 37.4 °F 54% 29.81 in 10.0 mi SW 11.5 mph - N/A   Clear
8:15 PM 51.8 °F - 37.4 °F 58% 29.81 in 10.0 mi SW 12.7 mph - N/A   Clear
8:35 PM 50.0 °F - 37.4 °F 62% 29.82 in 10.0 mi SW 9.2 mph - N/A   Clear
8:55 PM 50.0 °F - 35.6 °F 58% 29.83 in 10.0 mi WSW 8.1 mph - N/A   Clear
9:15 PM 48.2 °F - 37.4 °F 66% 29.84 in 2.5 mi WSW 9.2 mph - N/A   Haze
9:35 PM 48.2 °F - 35.6 °F 62% 29.85 in 10.0 mi West 8.1 mph - N/A   Clear
9:55 PM 46.4 °F 41.9 °F 35.6 °F 66% 29.85 in 10.0 mi West 9.2 mph - N/A   Clear
10:15 PM 46.4 °F 42.4 °F 35.6 °F 66% 29.86 in 10.0 mi WSW 8.1 mph - N/A   Clear
10:35 PM 42.8 °F 38.0 °F 35.6 °F 76% 29.87 in 10.0 mi WSW 8.1 mph - N/A   Clear
10:55 PM 44.6 °F 38.8 °F 35.6 °F 71% 29.87 in 10.0 mi West 11.5 mph - N/A   Clear
11:15 PM 46.4 °F 41.5 °F 37.4 °F 71% 29.88 in 10.0 mi West 10.4 mph - N/A   Clear
11:35 PM 48.2 °F - 35.6 °F 62% 29.89 in 10.0 mi West 10.4 mph - N/A   Clear
11:55 PM 46.4 °F 41.9 °F 35.6 °F 66% 29.88 in 10.0 mi West 9.2 mph - N/A   Clear